ROMMA est une association bénévole à but non lucratif. Votre soutien est indispensable : ADHERER à ROMMA ou FAIRE un DON

Chambon - (38, Isère)

Oisans (2460 m)   Longitude: 06° 10' 42" E   Latitude: 45° 01' 32" N Station partenaire n°803
 

Détail journalier du     <<     >>

Température Humidité Vent Dir Rafale Dir. rafale Neige 1 Neige 2
Heure (°C) (%) (km/h) (km/h) (cm) (cm)
01:00 -11.26719SO30SO053
02:00 -11.08212SO27SO053
03:00 -11.08112NNE32NNE053
04:00 -10.67922NNE42NE053
05:00 -10.27829NNE50NNE053
06:00 -9.36830NNE47NNE053
07:00 -9.46827NE41NE053
08:00 -9.16126NE35NE053
09:00 -9.05827NE35NE053
10:00 -8.55427NNE39NE052
11:00 -8.05120NNE31NNE052
12:00 -7.64317NNE26NNE052
13:00 -6.84221NNE34NE052
14:00 -6.95018NNE33NNE052
15:00 -6.45119NNE32NE052
16:00 -6.85916NNE31NE052
17:00 -7.3596NNE16NNE052
18:00 -7.7572NE7NE052
19:00 -7.8522NE7OSO053
20:00 -7.6534OSO7OSO052
21:00 -7.0454OSO17OSO052
22:00 -4.4155SSE21SO052
23:00 -4.4189SO20SO052
minuit -5.1199OSO27OSO052

Graphique du 13-11-2019

 

Serveur OMMA